AirNav   Air Wisconsin pilot careers
 
 535 users online  

9B8 Salmon River Airfield
Marlborough, Connecticut, USA

GOING TO MARLBOROUGH?


FAA INFORMATION EFFECTIVE 26 APRIL 2018

Location

FAA Identifier: 9B8
Lat/Long: 41-35-22.3560N / 072-26-32.3080W
41-35.372600N / 072-26.538467W
41.5895433 / -72.4423078
(estimated)
Elevation: 540 ft. / 165 m (estimated)
Variation: 14W (1985)
From city: 3 miles S of MARLBOROUGH, CT
Time zone: UTC -4 (UTC -5 during Standard Time)
Zip code: 06447

Airport Operations

Airport use: Open to the public
Activation date: 04/1962
Control tower: no
ARTCC: BOSTON CENTER
FSS: BRIDGEPORT FLIGHT SERVICE STATION
NOTAMs facility: BDR (NOTAM-D service available)
Attendance: IREG
ARPT CLSD SS-SR.
Wind indicator: yes
Segmented circle: no

Airport Communications

CTAF: 122.9
WX AWOS-3 at SNC (13 nm S): 118.325 (860-526-1551)
WX ASOS at HFD (13 nm NW): PHONE 860-527-5837
WX ASOS at IJD (15 nm NE): 133.675 (860-456-8839)
WX ASOS at MMK (18 nm W): 134.925 (203-639-9405)

Nearby radio navigation aids

VOR radial/distance  VOR name  Freq  Var
HFDr136/5.6HARTFORD VOR/DME114.9013W
ORWr290/20.0NORWICH VOR/DME110.0014W
MADr047/20.0MADISON VOR/DME110.4013W
GONr326/23.4GROTON VOR/DME110.8514W
HVNr058/28.0NEW HAVEN VOR/DME109.8013W
PUTr245/34.6PUTNAM VOR/DME117.4014W
BAFr174/36.5BARNES VORTAC113.0014W
CEFr188/36.7WESTOVER VORTAC114.0014W

 
NDB name  Hdg/Dist  Freq  Var  ID
CLERA082/32.636214WJWE .--- .-- .

Airport Services

Parking: tiedowns
Airframe service: NONE
Powerplant service: NONE

Runway Information

Runway 17/35

Dimensions: 2000 x 60 ft. / 610 x 18 m
Surface: turf, in good condition
RUNWAY 17  RUNWAY 35
Traffic pattern: rightleft
Obstructions: 46 ft. trees, 486 ft. from runway, 250 ft. left of centerline, 10:1 slope to clear68 ft. trees, 834 ft. from runway, 209 ft. right of centerline, 12:1 slope to clear

Airport Ownership and Management from official FAA records

Ownership: Privately-owned
Owner: SALMON RIVER AIRFIELD ASSOC
44 BULLHILL RD
COLCHESTER, CT 06415
Phone 860-267-6562
Manager: MARK DITOMASSO
141 OGDEN ROAD
COLCHESTER, CT 06415
Phone (860) 883-4272

Airport Operational Statistics

Aircraft based on the field: 9
Single engine airplanes: 7
Helicopters: 2
    
Aircraft operations: avg 67/month *
62% local general aviation
38% transient general aviation
* for 12-month period ending 31 August 2014

Additional Remarks

ARPT CLSD DEC 15 - APR 30.
PAE INVOF RY'S AND TWYS.
ALL SURFACES , RY & TWY, WORK IN PROGRESS, MAINTENANCE.

Instrument Procedures

There are no published instrument procedures at 9B8.

Some nearby airports with instrument procedures:

KSNC - Chester Airport (13 nm S)
KHFD - Hartford-Brainard Airport (13 nm NW)
KIJD - Windham Airport (15 nm NE)
KMMK - Meriden Markham Municipal Airport (18 nm W)
4B8 - Robertson Field Airport (20 nm W)
 
Loc | Ops | Rwys | IFR | FBO | Links
Com | Nav | Svcs | Stats | Notes

Silver City Flying Club
 
Area around 9B8 (Salmon River Airfield)
 
Road maps at: MapQuest Bing Google
 
Aerial photo
WARNING: Photo may not be current or correct
Aerial photo of 9B8 (Salmon River Airfield)
Photo taken 18-Sep-2005

Do you have a better or more recent aerial photo of Salmon River Airfield that you would like to share? If so, please send us your photo.

 
Sectional chart

 
Airport distance calculator
Flying to Salmon River Airfield? Find the distance to fly.

From to 9B8

Sunrise and sunset
Times for 21-May-2018
 Local
(UTC-4)
 Zulu
(UTC)
Morning civil twilight04:5408:54
Sunrise05:2609:26
Sunset20:0700:07
Evening civil twilight20:3900:39

Current date and time
Zulu (UTC)  21-May-2018 05:11:02
Local (UTC-4)  21-May-2018 01:11:02
 
METAR
KSNC 
13nm S 
210455Z AUTO 33005KT 10SM CLR 17/13 A3006 RMK AO2
KHFD 
13nm NW 
210453Z AUTO 33005KT 10SM CLR 17/12 A3006 RMK AO2 SLP179 T01720122 402830128
KIJD 
15nm NE 
210452Z AUTO 00000KT 10SM CLR 15/13 A3005 RMK AO2 SLP175 T01500133 402720133
KMMK 
18nm W 
210453Z AUTO 00000KT 10SM CLR 14/12 A3007 RMK AO2 SLP180 T01440117 402720122
KBDL 
23nm NW 
210451Z 31007KT 10SM BKN250 15/12 A3006 RMK AO2 SLP176 T01500122 402670128
KGON 
23nm SE 
210456Z AUTO 33008KT 10SM CLR 18/13 A3003 RMK AO2 SLP168 T01780133 402330122 $
TAF
KBDL 
23nm NW 
210240Z 2103/2206 33008KT P6SM FEW035 BKN250 FM210400 34004KT P6SM SKC FM211800 27008KT P6SM SKC FM212300 24006KT P6SM FEW250
KGON 
23nm SE 
210258Z 2103/2124 33006KT P6SM SCT250 FM210800 VRB04KT P6SM SCT250 FM211600 20008KT P6SM SKC FM212300 VRB04KT P6SM SCT250
NOTAMs
Click for the latest NOTAMs
NOTAMs are issued by the DoD/FAA and will open in a separate window not controlled by AirNav.

 

 
 

Would you like to see your business listed on this page?

 If your business provides an interesting product or service to pilots, flight crews, aircraft, or users of the Salmon River Airfield, you should consider listing it here.  To start the listing process, click on the button below
 
Add a business
 

Other Pages about Salmon River Airfield

Update a link
 
Copyright © AirNav, LLC. All rights reserved. Privacy Policy  Contact